Tracking 18795 objects as of 22-August-2017
HD Live streaming from Space Station
objects crossing your sky now

STEP 2

Track STEP 2 now!
10-day predictions
STEP 2 is classified as:


NORAD ID: 23105
Int'l Code: 1994-029A
Perigee: 576.0 km
Apogee: 725.6 km
Inclination: 82.0 °
Period: 97.6 minutes
Semi major axis: 7021 km
RCS: 2.0652 m2 (large)
Launch date: May 19, 1994
Source: United States (US)
Launch site: AIR FORCE WESTERN TEST RANGE (AFWTR)
Your satellite tracking list
Your tracking list is empty





NASA's NSSDC Master Catalog

Two Line Element Set (TLE):
1 23105U 94029A   17234.21012275 +.00000334 +00000-0 +41783-4 0  9999
2 23105 081.9529 161.4851 0106547 216.6016 142.7882 14.75460332243723
Source of the keplerian elements: AFSPC